Location: Shannon
(40.5500°S, 175.4167°E)
Time: 20:36:05
(UTC+00:00)

PAYLOAD A - Pass Details

Date: 17 November 2025
Orbit: 690 x 828 km, 98.6° (Epoch: 14 December)

Event Time Altitude Azimuth Distance (km) Brightness Sun altitude
Rises 15:24:25 0° 21° (NNE) 3,126 7.0 -14.2°
Reaches altitude 10° 15:26:42 10° 23° (NNE) 2,196 6.2 -13.9°
Maximum altitude 15:31:28 72° 106° (ESE) 749 4.1 -13.2°
Drops below altitude 10° 15:36:13 10° 189° (S) 2,181 6.8 -12.5°
Sets 15:38:28 0° 191° (S) 3,103 7.6 -12.2°
